{"data":{"norad_id":69984,"epoch":"2026-09-19T19:00:38.184768Z","epoch_age_seconds":78914,"freshness":"FRESH","line1":"1 69984U 26159K   26262.79210862  .00040744  00000+0  74604-3 0  9994","line2":"2 69984  97.2856 104.5429 0001489  92.6303 267.5118 15.49223401 12335","mean_motion":15.49223401,"eccentricity":0.0001489,"inclination_deg":97.2856,"raan_deg":104.5429,"arg_perigee_deg":92.6303,"mean_anomaly_deg":267.5118,"bstar":0.00074604,"rev_number":1233,"period_min":92.949796592958,"perigee_km":417.98455153745,"apogee_km":420.00873793685,"semimajor_km":6797.1336447372,"source":"CELESTRAK","updated_at":"2026-09-20T09:00:44.329528Z"}}